User: anonymous   Login
Location: Cronhütte
(48.9135°N, 9.6869°E)
Time: 21:33:36
(UTC+00:00)
Language:

Cosmos 1782 Rocket - Orbit

View from above orbital plane
View from above orbital plane
View from above satellite
View from above satellite

Ground track
Ground track

The orbit data is extracted from the following two-line orbital elements,

1 16987U 86074B   24206.49231807  .00000996  00000-0  11582-3 0  9998
2 16987  82.5142  39.7638 0017684 355.5592  42.5612 14.84260501 21937
Epoch (UTC): 24 July 2024 11:48:56
Eccentricity: 0.0017684
inclination: 82.5142°
perigee height: 603 km
apogee height: 628 km
right ascension of ascending node: 39.7638°
argument of perigee: 355.5592°
revolutions per day: 14.84260501
mean anomaly at epoch: 42.5612°
orbit number at epoch: 2193

The dashed part of the orbit path shows where the satellite is in the earth's shadow,  

DLR